• In Portugal
  • List of Countries
  • For 7 days
  • Water Temperature
  • Satellite Maps
  • Weather Map
  • Weather Widgets
  • user-avatar
    Login

    Hourly Weather Hutor

    Today, 21 September, Friday

    Time Temperature Precipitation Wind Pressure Humidity
    00:00 +16°C° 0 mm 2 mps 742 mmHg 88%
    01:00 +16°C° 0 mm 1 mps 742 mmHg 89%
    02:00 +16°C° 0 mm 1 mps 743 mmHg 90%
    03:00 +15°C° 0 mm 1 mps 743 mmHg 90%
    04:00 +15°C° 0 mm 1 mps 743 mmHg 91%
    05:00 +15°C° 0 mm 1 mps 743 mmHg 91%
    06:00 +16°C° 0 mm 1 mps 743 mmHg 87%
    07:00 +18°C° 0 mm 1 mps 743 mmHg 82%
    08:00 +20°C° 0 mm 1 mps 744 mmHg 76%
    09:00 +21°C° 0 mm 1 mps 744 mmHg 70%
    10:00 +22°C° 0 mm 1 mps 744 mmHg 64%
    11:00 +24°C° 0 mm 2 mps 744 mmHg 59%
    12:00 +24°C° 0 mm 2 mps 744 mmHg 55%
    13:00 +25°C° 0 mm 2 mps 744 mmHg 52%
    14:00 +26°C° 0 mm 1 mps 744 mmHg 48%
    15:00 +25°C° 0 mm 1 mps 744 mmHg 52%
    16:00 +24°C° 0 mm 1 mps 744 mmHg 56%
    17:00 +22°C° 0 mm 1 mps 743 mmHg 60%
    18:00 +22°C° 0 mm 1 mps 743 mmHg 62%
    19:00 +21°C° 0 mm 1 mps 743 mmHg 63%
    20:00 +20°C° 0 mm 1 mps 743 mmHg 65%
    21:00 +19°C° 0 mm 1 mps 743 mmHg 66%
    22:00 +19°C° 0 mm 1 mps 744 mmHg 67%
    23:00 +19°C° 0 mm 1 mps 744 mmHg 68%

    Tomorrow, 22 September, Saturday

    Time Temperature Precipitation Wind Pressure Humidity
    00:00 +17°C° 0 mm 2 mps 744 mmHg 69%
    01:00 +17°C° 0 mm 2 mps 744 mmHg 70%
    02:00 +17°C° 0 mm 2 mps 744 mmHg 71%
    03:00 +16°C° 0 mm 2 mps 743 mmHg 72%
    04:00 +16°C° 0 mm 2 mps 743 mmHg 73%
    05:00 +16°C° 0 mm 2 mps 743 mmHg 74%
    06:00 +17°C° 0 mm 3 mps 743 mmHg 71%
    07:00 +18°C° 0 mm 3 mps 743 mmHg 69%
    08:00 +19°C° 0 mm 4 mps 743 mmHg 66%
    09:00 +21°C° 0 mm 4 mps 743 mmHg 61%
    10:00 +22°C° 0 mm 4 mps 743 mmHg 57%
    11:00 +25°C° 0 mm 5 mps 742 mmHg 52%
    12:00 +26°C° 0 mm 5 mps 742 mmHg 51%
    13:00 +26°C° 0 mm 5 mps 742 mmHg 49%
    14:00 +27°C° 0 mm 6 mps 741 mmHg 47%
    15:00 +25°C° 0 mm 5 mps 741 mmHg 52%
    16:00 +23°C° 0 mm 4 mps 741 mmHg 56%
    17:00 +22°C° 0 mm 4 mps 740 mmHg 60%
    18:00 +21°C° 0 mm 4 mps 740 mmHg 59%
    19:00 +21°C° 0 mm 5 mps 739 mmHg 58%
    20:00 +20°C° 0 mm 5 mps 739 mmHg 56%
    21:00 +20°C° 0 mm 5 mps 739 mmHg 55%
    22:00 +20°C° 0 mm 5 mps 738 mmHg 54%
    23:00 +20°C° 0 mm 5 mps 738 mmHg 53%

    Day after tomorrow, 23 September, Sunday

    Time Temperature Precipitation Wind Pressure Humidity
    00:00 +19°C° 0 mm 5 mps 737 mmHg 54%
    01:00 +19°C° 0 mm 5 mps 737 mmHg 55%
    02:00 +17°C° 0 mm 5 mps 737 mmHg 56%
    03:00 +17°C° 0.1 mm 5 mps 736 mmHg 58%
    04:00 +16°C° 0.1 mm 5 mps 736 mmHg 61%
    05:00 +16°C° 0.1 mm 5 mps 736 mmHg 64%
    06:00 +15°C° 0.4 mm 5 mps 736 mmHg 70%
    07:00 +14°C° 0.4 mm 5 mps 736 mmHg 76%
    08:00 +13°C° 0.4 mm 6 mps 736 mmHg 82%
    09:00 +11°C° 0.6 mm 6 mps 737 mmHg 82%
    10:00 +10°C° 0.6 mm 5 mps 737 mmHg 82%
    11:00 +9°C° 0.6 mm 5 mps 737 mmHg 82%
    12:00 +9°C° 0.3 mm 5 mps 738 mmHg 81%
    13:00 +10°C° 0.3 mm 4 mps 738 mmHg 80%
    14:00 +11°C° 0.3 mm 4 mps 738 mmHg 79%
    15:00 +11°C° 0 mm 3 mps 738 mmHg 80%
    16:00 +11°C° 0 mm 3 mps 738 mmHg 81%
    17:00 +11°C° 0 mm 3 mps 738 mmHg 81%
    18:00 +11°C° 0 mm 3 mps 738 mmHg 83%
    19:00 +10°C° 0 mm 2 mps 738 mmHg 86%
    20:00 +9°C° 0 mm 2 mps 738 mmHg 88%
    21:00 +9°C° 0 mm 2 mps 738 mmHg 89%
    22:00 +9°C° 0 mm 3 mps 738 mmHg 90%
    23:00 +8°C° 0 mm 3 mps 738 mmHg 91%

    24 September, Monday

    Time Temperature Precipitation Wind Pressure Humidity
    00:00 +8°C° 0 mm 3 mps 738 mmHg 91%
    01:00 +8°C° 0 mm 3 mps 738 mmHg 91%
    02:00 +7°C° 0 mm 3 mps 738 mmHg 91%
    03:00 +7°C° 0 mm 3 mps 738 mmHg 91%
    04:00 +7°C° 0 mm 3 mps 738 mmHg 91%
    05:00 +7°C° 0 mm 2 mps 738 mmHg 90%
    06:00 +8°C° 0 mm 3 mps 738 mmHg 85%
    07:00 +9°C° 0 mm 3 mps 738 mmHg 80%
    08:00 +10°C° 0 mm 3 mps 738 mmHg 75%
    09:00 +12°C° 0 mm 4 mps 737 mmHg 71%
    10:00 +13°C° 0 mm 5 mps 737 mmHg 66%
    11:00 +14°C° 0 mm 6 mps 737 mmHg 61%
    12:00 +13°C° 0.2 mm 6 mps 736 mmHg 64%
    13:00 +13°C° 0.2 mm 6 mps 735 mmHg 67%
    14:00 +11°C° 0.2 mm 7 mps 734 mmHg 69%
    15:00 +11°C° 2.3 mm 8 mps 733 mmHg 74%
    16:00 +10°C° 2.3 mm 9 mps 731 mmHg 79%
    17:00 +8°C° 2.3 mm 10 mps 730 mmHg 84%
    18:00 +9°C° 1.5 mm 11 mps 729 mmHg 84%
    19:00 +9°C° 1.5 mm 11 mps 727 mmHg 84%
    20:00 +10°C° 1.5 mm 12 mps 726 mmHg 85%
    21:00 +9°C° 0.2 mm 11 mps 726 mmHg 83%
    22:00 +8°C° 0.2 mm 11 mps 725 mmHg 81%
    23:00 +7°C° 0.2 mm 11 mps 724 mmHg 79%

    25 September, Tuesday

    Time Temperature Precipitation Wind Pressure Humidity
    00:00 +7°C° 0 mm 11 mps 724 mmHg 78%
    01:00 +7°C° 0 mm 11 mps 724 mmHg 77%
    02:00 +7°C° 0 mm 11 mps 724 mmHg 77%
    03:00 +7°C° 0.1 mm 11 mps 724 mmHg 77%
    04:00 +7°C° 0.1 mm 11 mps 724 mmHg 77%
    05:00 +7°C° 0.1 mm 11 mps 724 mmHg 77%
    06:00 +6°C° 0.1 mm 11 mps 724 mmHg 77%
    07:00 +6°C° 0.1 mm 11 mps 724 mmHg 78%
    08:00 +6°C° 0.1 mm 11 mps 724 mmHg 79%
    09:00 +6°C° 0.5 mm 11 mps 725 mmHg 80%
    10:00 +6°C° 0.5 mm 11 mps 725 mmHg 81%
    11:00 +6°C° 0.5 mm 11 mps 726 mmHg 82%
    12:00 +6°C° 0.7 mm 11 mps 727 mmHg 82%
    13:00 +4°C° 0.7 mm 11 mps 728 mmHg 81%
    14:00 +4°C° 0.7 mm 11 mps 730 mmHg 81%
    15:00 +5°C° 0.3 mm 10 mps 731 mmHg 80%
    16:00 +5°C° 0.3 mm 10 mps 732 mmHg 78%
    17:00 +5°C° 0.3 mm 9 mps 733 mmHg 77%
    18:00 +5°C° 0 mm 8 mps 733 mmHg 77%
    19:00 +4°C° 0 mm 8 mps 734 mmHg 76%
    20:00 +4°C° 0 mm 7 mps 735 mmHg 76%
    21:00 +4°C° 0 mm 7 mps 735 mmHg 77%
    22:00 +3°C° 0 mm 6 mps 736 mmHg 77%
    23:00 +3°C° 0 mm 6 mps 736 mmHg 77%

    26 September, Wednesday

    Time Temperature Precipitation Wind Pressure Humidity
    00:00 +2°C° 0 mm 6 mps 736 mmHg 78%
    01:00 +2°C° 0 mm 6 mps 737 mmHg 78%
    02:00 +1°C° 0 mm 6 mps 737 mmHg 78%
    03:00 +1°C° 0 mm 5 mps 738 mmHg 79%
    04:00 +1°C° 0 mm 5 mps 738 mmHg 81%
    05:00 0°C° 0 mm 5 mps 739 mmHg 82%
    06:00 +1°C° 0 mm 5 mps 739 mmHg 80%
    07:00 +2°C° 0 mm 5 mps 739 mmHg 79%
    08:00 +3°C° 0 mm 5 mps 740 mmHg 77%
    09:00 +5°C° 0.3 mm 5 mps 740 mmHg 78%
    10:00 +5°C° 0.3 mm 5 mps 740 mmHg 78%
    11:00 +4°C° 0.3 mm 6 mps 741 mmHg 78%
    12:00 +6°C° 0.2 mm 5 mps 741 mmHg 77%
    13:00 +6°C° 0.2 mm 5 mps 741 mmHg 77%
    14:00 +6°C° 0.2 mm 5 mps 741 mmHg 76%
    15:00 +6°C° 0.2 mm 5 mps 742 mmHg 79%
    16:00 +6°C° 0.2 mm 4 mps 742 mmHg 82%
    17:00 +6°C° 0.2 mm 4 mps 743 mmHg 84%
    18:00 +5°C° 0.1 mm 3 mps 743 mmHg 87%
    19:00 +4°C° 0.1 mm 3 mps 744 mmHg 90%
    20:00 +4°C° 0.1 mm 3 mps 744 mmHg 93%
    21:00 +3°C° 0 mm 3 mps 744 mmHg 92%
    22:00 +3°C° 0 mm 3 mps 745 mmHg 91%
    23:00 +2°C° 0 mm 3 mps 745 mmHg 91%
    Show more